Regional Weather Roundup
Issued by NWS

Home | Current Version | Previous Version | Text Only | Print | Product List | Glossary Off
Versions: 1 2 3 4 5 6 7 8 9 10 11 12 13 14 15 16 17 18 19 20 21 22 23 24 25 26 27

327
ASUS45 KBOU 212007
RWRCO

WEATHER ROUNDUP FOR COLORADO
NATIONAL WEATHER SERVICE DENVER/BOULDER CO
200 PM MDT THU MAY 21 2015

NOTE: "FAIR" INDICATES FEW OR NO CLOUDS BELOW 12000 FEET WITH NO
SIGNIFICANT WEATHER AND/OR OBSTRUCTIONS TO VISIBILITY.

COZ001>005-013-030-031-212100-
...NORTHWEST COLORADO...

CITY           SKY/WX    TMP DP  RH WIND       PRES   REMARKS
CRAIG          CLOUDY    63  33  32 VRB3      30.06F
HAYDEN         CLOUDY    57  36  44 N9        30.09S
MEEKER         PTSUNNY   65  35  33 SE7G17    30.03F
MOUNT WERNER   NOT AVBL
STEAMBOAT SPGS CLOUDY    60  29  29 CALM      30.09S
WALDEN         CLOUDY    50  30  46 S13G20    30.18R
$$

COZ006>008-011-212100-
...WEST CENTRAL VALLEYS...

CITY           SKY/WX    TMP DP  RH WIND       PRES   REMARKS
GRAND JUNCTION CLOUDY    70  37  29 SE9       29.94F
MONTROSE       CLOUDY    66  32  28 W9        30.04F
EAGLE          MOSUNNY   66  28  24 NW7       30.05F
RIFLE          PTSUNNY   68  34  28 VRB3      29.99F
DELTA          CLOUDY    73  33  22 S9        30.00F
NUCLA          CLOUDY    68  32  26 N5        30.02F
$$

COZ017>023-064>068-212100-
...SOUTHWEST COLORADO...

CITY           SKY/WX    TMP DP  RH WIND       PRES   REMARKS
DURANGO        PTSUNNY   64  34  32 SE16G24   30.07F
CORTEZ         MOSUNNY   69  37  30 S6        30.02F
PAGOSA SPRINGS PTSUNNY   63  28  26 S8G20     30.13F
TELLURIDE      CLOUDY    56  25  30 SE10G16   30.16F
WOLF CREEK PAS NOT AVBL
$$

COZ009-010-012-014-032>034-037-058>063-212100-
...CENTRAL COLORADO...

CITY           SKY/WX    TMP DP  RH WIND       PRES   REMARKS
ASPEN          CLOUDY    62  22  21 VRB5      30.08F
BUENA VISTA    CLOUDY    54  40  59 S3        30.19F
COPPER MTN     CLOUDY    45  25  45 E8G17     30.33F
BERTHOUD PASS  CLOUDY    30  23  74 SE18      30.39F WCI  18
COTTONWOOD PAS CLOUDY    48  37  66 CALM      30.26F
GUNNISON       CLOUDY    57  30  35 E9        30.14F
KREMMLING      CLOUDY    61  27  27 N17G24    30.10F
LEADVILLE      CLOUDY    46  35  65 S12       30.23S
SALIDA         CLOUDY    60  42  52 E9        30.23F
SUNLIGHT       CLOUDY    45  30  57 NE3       30.29S
WILKERSON PASS CLOUDY    41  32  70 SW3       30.37S
$$

COZ069>075-212100-
...SAN LUIS VALLEY/SANGRE DE CRISTO MOUNTAINS...

CITY           SKY/WX    TMP DP  RH WIND       PRES   REMARKS
ALAMOSA        PTSUNNY   64  36  35 SE13G20   30.13F
LA VETA PASS   FOG      N/A N/A N/A MISG      30.30F VSB 1/4
SAGUACHE       PTSUNNY   59  41  51 SE6G16    30.17F
$$

COZ035-036-038>040-212100-
...NORTHERN COLORADO FRONT RANGE...

CITY           SKY/WX    TMP DP  RH WIND       PRES   REMARKS
DENVER INTL AP CLOUDY    55  44  66 NW12      30.17S
DMNS CITY PARK   N/A     51  40  65 NW7G15    30.18S
AURORA         CLOUDY    53  42  66 N8        30.18S
FRONT RANGE AP CLOUDY    57  46  67 N7        30.17F
ERIE MUNI ARPT CLOUDY    49  41  74 NW6       30.19S
BOULDER MUN AP CLOUDY    46  41  81 CALM      30.20S
CENTENNIAL     CLOUDY    54  42  64 VRB6      30.17F
BROOMFIELD     CLOUDY    48  41  76 NW7       30.20S
FORT COLLINS   CLOUDY    48  39  71 CALM      30.21S
LONGMONT       CLOUDY    53  41  64 CALM      30.21S
$$

COZ041-046-047-076>085-087-088-212100-
...PIKES PEAK/PALMER DIVIDE AND SOUTHERN FOOTHILLS...

CITY           SKY/WX    TMP DP  RH WIND       PRES   REMARKS
COLO. SPRINGS  DRIZZLE   43  43 100 S13       30.23F FOG
A. F. ACADEMY  CLOUDY    42  42  99 S12       30.21F
ELLICOTT       NOT AVBL
FALCON         FOG       41  40  98 S9        30.23F VSB 1/2
FORT CARSON    CLOUDY    43 N/A N/A S10       30.21F
LIMON          CLOUDY    48  42  80 SE15      30.21F
MONUMENT HILL  NOT AVBL
TRINIDAD       CLOUDY    55  45  68 NE6       30.19F
$$

COZ042>045-048>051-090-091-212100-
...NORTHEAST COLORADO...

CITY           SKY/WX    TMP DP  RH WIND       PRES   REMARKS
GREELEY ARPT   CLOUDY    54  41  62 W6        30.19S
AKRON          CLOUDY    56  46  69 SE21      30.20F
BURLINGTON     CLOUDY    54  43  66 S12       30.24F
WRAY           CLOUDY    59  43  54 S12       30.24F
STERLING       CLOUDY    59  45  58 SE15      30.19F
HOLYOKE        NOT AVBL
FORT MORGAN    CLOUDY    57  43  58 SE15      30.19S
$$

COZ086-089-092>099-212100-
...SOUTHEAST COLORADO...

CITY           SKY/WX    TMP DP  RH WIND       PRES   REMARKS
PUEBLO         CLOUDY    50  45  83 E5        30.20F
LA JUNTA       CLOUDY    56  47  71 E14       30.19F
LAMAR          CLOUDY    59  45  59 SE12      30.20F
SPRINGFIELD      N/A     50  43  77 S9        30.24F
$$



USA.gov is the U.S. government's official web portal to all federal, state and local government web resources and services.